TimeCDT,TemperatureF,Dew PointF,Humidity,Sea Level PressureIn,VisibilityMPH,Wind Direction,Wind SpeedMPH,Gust SpeedMPH,PrecipitationIn,Events,Conditions,WindDirDegrees,DateUTC
12:53 AM,59.0,57.0,93,29.68,6.0,NNE,4.6,-,N/A,,Overcast,30,2013-03-24 05:53:00
1:47 AM,59.0,57.2,94,29.76,2.5,NNW,21.9,27.6,0.01,,Overcast,340,2013-03-24 06:47:00
1:48 AM,59.0,57.0,93,29.76,2.5,NNW,21.9,27.6,0.01,,Overcast,340,2013-03-24 06:48:00
2:14 AM,57.2,57.2,100,29.77,4.0,NNW,13.8,26.5,0.00,Rain,Light Rain,340,2013-03-24 07:14:00
2:53 AM,57.0,54.0,89,29.80,10.0,North,18.4,29.9,0.00,,Overcast,350,2013-03-24 07:53:00
3:20 AM,55.4,51.8,88,29.84,10.0,NNW,24.2,35.7,N/A,,Overcast,340,2013-03-24 08:20:00
3:53 AM,54.0,50.0,86,29.84,10.0,North,17.3,-,N/A,,Overcast,350,2013-03-24 08:53:00
4:02 AM,53.6,48.2,82,29.85,10.0,North,19.6,31.1,N/A,,Overcast,350,2013-03-24 09:02:00
4:53 AM,54.0,46.0,75,29.88,10.0,NNW,18.4,28.8,N/A,,Overcast,340,2013-03-24 09:53:00
5:53 AM,51.1,41.0,68,29.93,10.0,NNW,20.7,28.8,N/A,,Mostly Cloudy,330,2013-03-24 10:53:00
6:00 AM,50.0,41.0,71,29.94,10.0,NNW,19.6,27.6,N/A,,Overcast,330,2013-03-24 11:00:00
6:37 AM,46.4,35.6,66,29.97,10.0,NNW,21.9,38.0,N/A,,Scattered Clouds,340,2013-03-24 11:37:00
6:53 AM,46.0,35.1,66,29.98,10.0,NNW,18.4,28.8,N/A,,Clear,330,2013-03-24 11:53:00
7:53 AM,45.0,34.0,65,30.01,10.0,NW,19.6,27.6,N/A,,Clear,320,2013-03-24 12:53:00
8:53 AM,45.0,30.9,58,30.06,10.0,NNW,23.0,38.0,N/A,,Clear,340,2013-03-24 13:53:00
9:53 AM,46.9,30.0,52,30.09,10.0,NW,20.7,28.8,N/A,,Clear,310,2013-03-24 14:53:00
10:53 AM,48.9,28.0,44,30.12,10.0,NW,23.0,32.2,N/A,,Clear,320,2013-03-24 15:53:00
11:53 AM,52.0,28.0,40,30.11,10.0,NNW,23.0,34.5,N/A,,Clear,340,2013-03-24 16:53:00
12:53 PM,54.0,30.0,40,30.10,10.0,North,21.9,31.1,N/A,,Clear,350,2013-03-24 17:53:00
1:53 PM,55.0,28.9,37,30.08,10.0,NNW,20.7,29.9,N/A,,Clear,340,2013-03-24 18:53:00
2:53 PM,55.9,30.0,37,30.06,10.0,North,24.2,32.2,N/A,,Clear,350,2013-03-24 19:53:00
3:53 PM,57.0,28.9,34,30.04,10.0,NNW,20.7,27.6,N/A,,Clear,340,2013-03-24 20:53:00
4:53 PM,57.9,28.0,32,30.03,10.0,NNW,18.4,26.5,N/A,,Clear,330,2013-03-24 21:53:00
5:53 PM,57.0,27.0,32,30.03,10.0,NNW,16.1,25.3,N/A,,Clear,330,2013-03-24 22:53:00
6:53 PM,55.0,26.1,33,30.04,10.0,North,17.3,-,N/A,,Clear,360,2013-03-24 23:53:00
7:53 PM,52.0,27.0,38,30.07,10.0,North,11.5,-,N/A,,Clear,350,2013-03-25 00:53:00
8:53 PM,50.0,28.0,43,30.09,10.0,North,11.5,-,N/A,,Clear,360,2013-03-25 01:53:00
9:53 PM,46.9,28.9,50,30.12,10.0,North,8.1,-,N/A,,Clear,350,2013-03-25 02:53:00
10:53 PM,44.1,28.9,55,30.15,10.0,North,6.9,-,N/A,,Clear,360,2013-03-25 03:53:00
11:53 PM,43.0,28.9,58,30.17,10.0,North,4.6,-,N/A,,Clear,360,2013-03-25 04:53:00